| time (UTC) | temp C | wind direction | speed KPH | gust KPH | rain 1hr cm | rain 24hr cm | rain mn cm | humidity % | barometer mb |
| 20260507151445 | 12 | 337 | 0.0 | 0.0 | 0.00 | 0.25 | 0.20 | 69 | 1010.8 |
| 20260507150445 | 12 | 337 | 0.0 | 0.0 | 0.00 | 0.30 | 0.20 | 70 | 1010.8 |
| 20260507145341 | 12 | 337 | 0.0 | 0.0 | 0.00 | 0.30 | 0.20 | 69 | 1011.2 |
| 20260507144340 | 12 | 337 | 0.0 | 0.0 | 0.00 | 0.30 | 0.20 | 69 | 1011.2 |
| 20260507143338 | 12 | 337 | 0.0 | 0.0 | 0.00 | 0.30 | 0.20 | 71 | 1011.2 |
| 20260507142336 | 12 | 337 | 0.0 | 0.0 | 0.00 | 0.36 | 0.20 | 74 | 1011.5 |
| 20260507141334 | 12 | 337 | 0.0 | 0.0 | 0.00 | 0.41 | 0.20 | 75 | 1011.5 |
| 20260507140334 | 12 | 0 | 0.0 | 0.0 | 0.00 | 0.41 | 0.20 | 76 | 1011.5 |
| 20260507135305 | 12 | 0 | 0.0 | 0.0 | 0.00 | 0.41 | 0.20 | 76 | 1011.5 |
| 20260507134300 | 12 | 0 | 0.0 | 0.0 | 0.00 | 0.46 | 0.20 | 76 | 1011.5 |
| 20260507133300 | 12 | 0 | 0.0 | 0.0 | 0.00 | 0.51 | 0.20 | 73 | 1011.5 |
| 20260507132259 | 12 | 0 | 0.0 | 0.0 | 0.00 | 0.64 | 0.20 | 75 | 1011.9 |
| 20260507131227 | 12 | 0 | 0.0 | 0.0 | 0.00 | 0.69 | 0.20 | 74 | 1011.5 |
| 20260507130227 | 12 | 0 | 0.0 | 0.0 | 0.00 | 0.69 | 0.20 | 74 | 1011.5 |
| 20260507125226 | 12 | 337 | 0.0 | 0.0 | 0.00 | 0.69 | 0.20 | 76 | 1011.5 |
| 20260507124153 | 12 | 337 | 0.0 | 0.0 | 0.00 | 0.69 | 0.20 | 76 | 1011.2 |
| 20260507123152 | 12 | 337 | 0.0 | 0.0 | 0.00 | 0.69 | 0.20 | 77 | 1011.2 |
| 20260507122120 | 12 | 337 | 0.0 | 0.0 | 0.00 | 0.74 | 0.20 | 78 | 1011.5 |
| 20260507121120 | 12 | 337 | 0.0 | 0.0 | 0.00 | 0.74 | 0.20 | 81 | 1011.2 |
| 20260507120119 | 12 | 337 | 0.0 | 0.0 | 0.00 | 0.74 | 0.20 | 83 | 1011.2 |
| 20260507115047 | 12 | 0 | 0.0 | 0.0 | 0.00 | 0.74 | 0.20 | 87 | 1011.2 |
| 20260507114047 | 12 | 0 | 0.0 | 0.0 | 0.00 | 0.74 | 0.20 | 89 | 1010.8 |
| 20260507113015 | 12 | 0 | 0.0 | 0.0 | 0.00 | 0.74 | 0.20 | 91 | 1010.8 |
| 20260507112014 | 12 | 0 | 0.0 | 0.0 | 0.00 | 0.74 | 0.20 | 92 | 1010.8 |
| 20260507111012 | 12 | 0 | 0.0 | 0.0 | 0.00 | 0.74 | 0.20 | 92 | 1010.8 |
| 20260507110010 | 12 | 0 | 0.0 | 0.0 | 0.00 | 0.74 | 0.20 | 92 | 1010.5 |
| 20260507105010 | 12 | 0 | 0.0 | 0.0 | 0.00 | 0.74 | 0.20 | 92 | 1010.8 |
| 20260507104009 | 12 | 0 | 0.0 | 0.0 | 0.00 | 0.74 | 0.20 | 92 | 1010.5 |
| 20260507103008 | 12 | 0 | 0.0 | 0.0 | 0.00 | 0.74 | 0.20 | 92 | 1010.5 |
| 20260507102008 | 12 | 0 | 0.0 | 0.0 | 0.00 | 0.74 | 0.20 | 92 | 1010.5 |
| 20260507101007 | 12 | 0 | 0.0 | 0.0 | 0.00 | 0.74 | 0.20 | 92 | 1010.5 |
| 20260507100006 | 12 | 0 | 0.0 | 0.0 | 0.00 | 0.74 | 0.20 | 92 | 1010.2 |
| 20260507095005 | 12 | 0 | 0.0 | 0.0 | 0.00 | 0.74 | 0.20 | 92 | 1010.2 |
| 20260507094005 | 12 | 0 | 0.0 | 0.0 | 0.00 | 0.74 | 0.20 | 91 | 1010.2 |
| 20260507093004 | 12 | 0 | 0.0 | 0.0 | 0.00 | 0.74 | 0.20 | 91 | 1010.2 |
| 20260507092002 | 12 | 0 | 0.0 | 0.0 | 0.00 | 0.74 | 0.20 | 91 | 1009.8 |
| 20260507091002 | 12 | 0 | 0.0 | 0.0 | 0.00 | 0.74 | 0.20 | 91 | 1009.8 |
| 20260507090001 | 12 | 0 | 0.0 | 0.0 | 0.00 | 0.74 | 0.20 | 91 | 1010.2 |
| 20260507085001 | 12 | 0 | 0.0 | 0.0 | 0.05 | 0.74 | 0.20 | 91 | 1009.8 |
| 20260507084000 | 12 | 0 | 0.0 | 0.0 | 0.05 | 0.74 | 0.20 | 91 | 1009.5 |
| 20260507082927 | 12 | 0 | 0.0 | 0.0 | 0.05 | 0.74 | 0.20 | 91 | 1009.8 |
| 20260507081855 | 12 | 0 | 0.0 | 0.0 | 0.05 | 0.74 | 0.20 | 90 | 1009.8 |
| 20260507080855 | 12 | 0 | 0.0 | 0.0 | 0.05 | 0.74 | 0.20 | 90 | 1009.8 |
| 20260507075853 | 12 | 0 | 0.0 | 0.0 | 0.00 | 0.69 | 0.15 | 90 | 1009.1 |
| 20260507074852 | 12 | 0 | 0.0 | 0.0 | 0.00 | 0.69 | 0.15 | 90 | 1009.5 |
| 20260507073851 | 12 | 0 | 0.0 | 0.0 | 0.00 | 0.69 | 0.15 | 90 | 1009.5 |
| 20260507072850 | 12 | 0 | 0.0 | 0.0 | 0.00 | 0.69 | 0.15 | 90 | 1009.1 |
| 20260507071849 | 12 | 0 | 0.0 | 0.0 | 0.00 | 0.69 | 0.15 | 90 | 1009.1 |
| 20260507070849 | 12 | 0 | 0.0 | 0.0 | 0.00 | 0.69 | 0.15 | 91 | 1009.1 |
| 20260507065848 | 12 | 22 | 0.0 | 0.0 | 0.00 | 0.69 | 0.15 | 91 | 1009.5 |
| 20260507064846 | 12 | 22 | 0.0 | 0.0 | 0.00 | 0.69 | 0.15 | 91 | 1009.1 |
| 20260507063846 | 12 | 22 | 0.0 | 1.6 | 0.00 | 0.69 | 0.15 | 91 | 1009.5 |
| 20260507062845 | 12 | 22 | 0.0 | 0.0 | 0.05 | 0.69 | 0.15 | 91 | 1009.1 |
| 20260507061844 | 13 | 337 | 0.0 | 1.6 | 0.05 | 0.69 | 0.15 | 91 | 1009.1 |
| 20260507060843 | 13 | 22 | 0.0 | 0.0 | 0.05 | 0.69 | 0.15 | 91 | 1009.1 |
| 20260507055810 | 13 | 0 | 0.0 | 0.0 | 0.05 | 0.69 | 0.15 | 91 | 1009.1 |
| 20260507054809 | 13 | 0 | 0.0 | 0.0 | 0.05 | 0.69 | 0.15 | 90 | 1008.8 |
| 20260507053807 | 13 | 45 | 0.0 | 0.0 | 0.05 | 0.69 | 0.15 | 91 | 1009.1 |
| 20260507052806 | 13 | 0 | 0.0 | 0.0 | 0.05 | 0.64 | 0.10 | 90 | 1009.1 |
| 20260507051805 | 14 | 337 | 3.2 | 3.2 | 0.10 | 0.64 | 0.10 | 90 | 1009.1 |
| 20260507050450 | 14 | 0 | 0.0 | 0.0 | 0.10 | 0.64 | 0.10 | 89 | 1009.5 |
| 20260507045449 | 14 | 0 | 0.0 | 1.6 | 0.10 | 0.64 | 0.10 | 89 | 1009.5 |
| 20260507044448 | 15 | 0 | 0.0 | 0.0 | 0.10 | 0.64 | 0.10 | 88 | 1008.8 |
| 20260507043446 | 15 | 315 | 0.0 | 1.6 | 0.05 | 0.58 | 0.05 | 87 | 1009.5 |
| 20260507042343 | 15 | 270 | 0.0 | 0.0 | 0.05 | 0.58 | 0.05 | 84 | 1009.8 |
| 20260507041310 | 16 | 112 | 0.0 | 3.2 | 0.00 | 0.53 | 0.00 | 83 | 1009.1 |
| 20260507040310 | 16 | 22 | 0.0 | 3.2 | 0.00 | 0.53 | 0.00 | 81 | 1008.8 |
| 20260507035309 | 16 | 45 | 0.0 | 3.2 | 0.00 | 0.53 | 0.53 | 80 | 1009.1 |
| 20260507034308 | 17 | 67 | 0.0 | 1.6 | 0.00 | 0.53 | 0.53 | 79 | 1009.1 |
| 20260507033307 | 17 | 337 | 0.0 | 3.2 | 0.00 | 0.53 | 0.53 | 78 | 1008.8 |
| 20260507032307 | 17 | 22 | 0.0 | 1.6 | 0.00 | 0.53 | 0.53 | 78 | 1009.1 |
| 20260507031306 | 17 | 22 | 0.0 | 3.2 | 0.00 | 0.53 | 0.53 | 80 | 1008.5 |
| 20260507030305 | 18 | 337 | 0.0 | 1.6 | 0.00 | 0.53 | 0.53 | 82 | 1008.1 |
| 20260507025306 | 18 | 22 | 1.6 | 4.8 | 0.00 | 0.53 | 0.53 | 82 | 1008.1 |
| 20260507024303 | 18 | 202 | 0.0 | 0.0 | 0.00 | 0.53 | 0.53 | 84 | 1008.1 |
| 20260507023302 | 18 | 22 | 0.0 | 3.2 | 0.00 | 0.53 | 0.53 | 85 | 1008.1 |
| 20260507022301 | 18 | 22 | 0.0 | 0.0 | 0.00 | 0.53 | 0.53 | 86 | 1007.8 |
| 20260507021228 | 19 | 0 | 0.0 | 0.0 | 0.00 | 0.53 | 0.53 | 87 | 1007.5 |
| 20260507020156 | 18 | 0 | 0.0 | 0.0 | 0.00 | 0.53 | 0.53 | 89 | 1007.8 |
| 20260507015155 | 18 | 0 | 0.0 | 0.0 | 0.00 | 0.53 | 0.53 | 89 | 1007.8 |
| 20260507014155 | 18 | 0 | 0.0 | 0.0 | 0.00 | 0.53 | 0.53 | 89 | 1007.8 |
| 20260507013153 | 18 | 0 | 0.0 | 0.0 | 0.00 | 0.53 | 0.53 | 89 | 1007.5 |
| 20260507012152 | 18 | 0 | 0.0 | 0.0 | 0.00 | 0.53 | 0.53 | 88 | 1007.8 |
| 20260507011151 | 18 | 22 | 0.0 | 0.0 | 0.00 | 0.53 | 0.53 | 88 | 1008.1 |
| 20260507010151 | 18 | 22 | 0.0 | 0.0 | 0.00 | 0.53 | 0.53 | 87 | 1007.8 |
| 20260507005150 | 18 | 22 | 0.0 | 0.0 | 0.00 | 0.53 | 0.53 | 87 | 1007.8 |
| 20260507004150 | 18 | 22 | 0.0 | 0.0 | 0.00 | 0.53 | 0.53 | 87 | 1007.5 |
| 20260507003148 | 18 | 22 | 0.0 | 0.0 | 0.00 | 0.53 | 0.53 | 86 | 1008.1 |
| 20260507002147 | 19 | 22 | 0.0 | 0.0 | 0.00 | 0.53 | 0.53 | 85 | 1007.5 |
| 20260507001115 | 19 | 22 | 0.0 | 0.0 | 0.00 | 0.53 | 0.53 | 85 | 1007.5 |
| 20260507000114 | 20 | 22 | 0.0 | 0.0 | 0.00 | 0.53 | 0.53 | 84 | 1007.5 |
| 20260506235113 | 20 | 22 | 0.0 | 0.0 | 0.00 | 0.53 | 0.53 | 84 | 1007.5 |
| 20260506234112 | 20 | 22 | 0.0 | 0.0 | 0.00 | 0.53 | 0.53 | 83 | 1007.1 |
| 20260506233111 | 20 | 22 | 0.0 | 0.0 | 0.00 | 0.53 | 0.53 | 83 | 1006.8 |
| 20260506232111 | 20 | 135 | 0.0 | 0.0 | 0.00 | 0.53 | 0.53 | 82 | 1006.8 |
| 20260506231110 | 20 | 135 | 0.0 | 0.0 | 0.00 | 0.53 | 0.53 | 81 | 1006.8 |
| 20260506230109 | 20 | 135 | 1.6 | 3.2 | 0.00 | 0.53 | 0.53 | 81 | 1006.8 |
| 20260506225108 | 20 | 135 | 3.2 | 3.2 | 0.00 | 0.53 | 0.53 | 81 | 1006.8 |
| 20260506224035 | 20 | 157 | 0.0 | 3.2 | 0.00 | 0.53 | 0.53 | 81 | 1006.4 |
| 20260506223003 | 20 | 90 | 0.0 | 4.8 | 0.00 | 0.53 | 0.53 | 81 | 1006.8 |
| 20260506222002 | 20 | 247 | 4.8 | 4.8 | 0.00 | 0.53 | 0.53 | 81 | 1006.8 |
| 20260506220859 | 20 | 225 | 4.8 | 4.8 | 0.00 | 0.53 | 0.53 | 81 | 1006.8 |
| 20260506215859 | 20 | 112 | 4.8 | 6.4 | 0.00 | 0.53 | 0.53 | 81 | 1006.8 |
| 20260506214857 | 20 | 337 | 0.0 | 3.2 | 0.00 | 0.53 | 0.53 | 81 | 1006.8 |
| 20260506213856 | 20 | 157 | 6.4 | 6.4 | 0.00 | 0.53 | 0.53 | 80 | 1006.8 |
| 20260506212856 | 21 | 157 | 4.8 | 6.4 | 0.00 | 0.53 | 0.53 | 80 | 1006.8 |
| 20260506211854 | 21 | 112 | 6.4 | 6.4 | 0.00 | 0.53 | 0.53 | 80 | 1006.8 |
| 20260506210853 | 21 | 202 | 0.0 | 6.4 | 0.00 | 0.53 | 0.53 | 80 | 1006.8 |
| 20260506205852 | 20 | 67 | 8.0 | 9.7 | 0.00 | 0.53 | 0.53 | 81 | 1006.4 |
| 20260506204852 | 20 | 225 | 3.2 | 16.1 | 0.00 | 0.53 | 0.53 | 81 | 1006.4 |
| 20260506203820 | 21 | 135 | 6.4 | 6.4 | 0.00 | 0.53 | 0.53 | 81 | 1006.4 |
| 20260506202818 | 21 | 292 | 3.2 | 4.8 | 0.00 | 0.53 | 0.53 | 81 | 1006.4 |
| 20260506201817 | 20 | 292 | 1.6 | 9.7 | 0.00 | 0.53 | 0.53 | 82 | 1006.4 |
| 20260506200816 | 20 | 90 | 0.0 | 6.4 | 0.00 | 0.53 | 0.53 | 82 | 1006.4 |
| 20260506195815 | 20 | 135 | 3.2 | 9.7 | 0.00 | 0.53 | 0.53 | 82 | 1006.4 |
| 20260506194814 | 20 | 225 | 11.3 | 11.3 | 0.00 | 0.53 | 0.53 | 83 | 1006.4 |
| 20260506193743 | 20 | 180 | 8.0 | 8.0 | 0.00 | 0.53 | 0.53 | 83 | 1006.4 |
| 20260506192742 | 19 | 45 | 1.6 | 14.5 | 0.00 | 0.53 | 0.53 | 83 | 1006.4 |
| 20260506191710 | 19 | 112 | 14.5 | 14.5 | 0.00 | 0.53 | 0.53 | 84 | 1006.8 |
| 20260506190710 | 19 | 180 | 6.4 | 17.7 | 0.00 | 0.53 | 0.53 | 84 | 1007.1 |
| 20260506185709 | 19 | 202 | 4.8 | 4.8 | 0.00 | 0.53 | 0.53 | 84 | 1007.1 |
| 20260506184708 | 19 | 135 | 6.4 | 6.4 | 0.00 | 0.53 | 0.53 | 84 | 1007.5 |
| 20260506183707 | 19 | 157 | 6.4 | 6.4 | 0.00 | 0.53 | 0.53 | 85 | 1007.5 |
| 20260506182706 | 18 | 247 | 3.2 | 8.0 | 0.00 | 0.53 | 0.53 | 85 | 1007.1 |
| 20260506181706 | 18 | 180 | 6.4 | 6.4 | 0.00 | 0.53 | 0.53 | 86 | 1007.5 |
| 20260506180705 | 18 | 270 | 3.2 | 6.4 | 0.00 | 0.53 | 0.53 | 86 | 1007.8 |
| 20260506175703 | 18 | 90 | 0.0 | 3.2 | 0.00 | 0.53 | 0.53 | 87 | 1007.5 |
| 20260506174702 | 18 | 270 | 3.2 | 4.8 | 0.00 | 0.53 | 0.53 | 87 | 1007.5 |
| 20260506173701 | 18 | 180 | 0.0 | 8.0 | 0.00 | 0.53 | 0.53 | 88 | 1007.5 |
| 20260506172700 | 17 | 247 | 8.0 | 8.0 | 0.00 | 0.53 | 0.53 | 88 | 1007.5 |
| 20260506171658 | 17 | 157 | 6.4 | 6.4 | 0.00 | 0.53 | 0.53 | 89 | 1007.8 |
| 20260506170656 | 17 | 157 | 4.8 | 8.0 | 0.00 | 0.53 | 0.53 | 89 | 1007.8 |
| 20260506165656 | 17 | 247 | 1.6 | 8.0 | 0.00 | 0.53 | 0.53 | 90 | 1008.1 |
| 20260506164655 | 17 | 112 | 8.0 | 8.0 | 0.00 | 0.53 | 0.53 | 90 | 1008.1 |
| 20260506163654 | 17 | 225 | 6.4 | 6.4 | 0.00 | 0.53 | 0.53 | 91 | 1008.1 |
| 20260506162653 | 17 | 202 | 0.0 | 8.0 | 0.00 | 0.53 | 0.53 | 91 | 1008.1 |
| 20260506161652 | 16 | 180 | 0.0 | 6.4 | 0.00 | 0.53 | 0.53 | 91 | 1008.1 |
| 20260506160547 | 16 | 112 | 3.2 | 4.8 | 0.05 | 0.53 | 0.53 | 91 | 1007.8 |
| 20260506155547 | 16 | 112 | 9.7 | 9.7 | 0.10 | 0.53 | 0.53 | 91 | 1008.1 |
| 20260506154545 | 16 | 180 | 8.0 | 8.0 | 0.10 | 0.53 | 0.53 | 91 | 1008.5 |
| 20260506153513 | 16 | 90 | 8.0 | 12.9 | 0.10 | 0.53 | 0.53 | 91 | 1008.5 |
| 20260506152512 | 16 | 180 | 0.0 | 14.5 | 0.15 | 0.53 | 0.53 | 91 | 1008.1 |